Total_Precipitation_Accumulation
0.00 0.00 0.01 0.03 0.03 0.03 0.09 0.19 0.20 0.16 0.20 0.28 0.28 0.24 0.24 0.11 0.06 0.06 0.08 0.10 0.17 0.25 0.20 0.11 0.09 0.09 0.06 0.04 0.04 0.05 0.05 0.05 0.06 0.08 0.16 0.20 0.20 0.22 0.25 0.24 0.17 0.29 0.21
0.00 0.01 0.02 0.04 0.04 0.03 0.07 0.14 0.20 0.19 0.21 0.26 0.28 0.29 0.19 0.09 0.06 0.06 0.08 0.09 0.12 0.14 0.11 0.08 0.10 0.08 0.07 0.07 0.08 0.08 0.08 0.08 0.08 0.08 0.11 0.10 0.13 0.19 0.16 0.14 0.12 0.15 0.13
0.01 0.01 0.04 0.07 0.04 0.02 0.05 0.11 0.20 0.24 0.28 0.32 0.34 0.34 0.15 0.05 0.04 0.06 0.09 0.13 0.13 0.08 0.05 0.06 0.08 0.08 0.06 0.06 0.07 0.10 0.14 0.08 0.06 0.05 0.03 0.04 0.09 0.17 0.22 0.25 0.21 0.15 0.12
0.01 0.05 0.11 0.13 0.08 0.05 0.07 0.15 0.21 0.28 0.33 0.38 0.38 0.26 0.06 0.02 0.04 0.08 0.14 0.18 0.13 0.04 0.03 0.04 0.06 0.05 0.04 0.05 0.06 0.07 0.13 0.11 0.09 0.06 0.04 0.08 0.14 0.30 0.31 0.30 0.24 0.14 0.13
0.02 0.09 0.19 0.18 0.14 0.11 0.11 0.19 0.28 0.34 0.32 0.34 0.30 0.14 0.03 0.03 0.06 0.12 0.19 0.15 0.07 0.03 0.02 0.02 0.03 0.03 0.02 0.03 0.05 0.06 0.09 0.10 0.09 0.04 0.05 0.11 0.16 0.26 0.28 0.35 0.35 0.19 0.15
0.02 0.06 0.12 0.17 0.16 0.14 0.18 0.25 0.27 0.24 0.24 0.27 0.19 0.10 0.04 0.09 0.11 0.13 0.11 0.06 0.03 0.02 0.01 0.01 0.01 0.02 0.02 0.03 0.05 0.06 0.07 0.06 0.06 0.04 0.06 0.12 0.19 0.23 0.26 0.32 0.35 0.25 0.14
0.01 0.02 0.05 0.13 0.13 0.12 0.18 0.25 0.24 0.16 0.18 0.19 0.19 0.16 0.07 0.11 0.15 0.16 0.08 0.03 0.01 0.02 0.02 0.01 0.01 0.01 0.02 0.04 0.06 0.07 0.06 0.03 0.03 0.02 0.06 0.11 0.13 0.14 0.20 0.33 0.42 0.40 0.23
0.00 0.01 0.02 0.08 0.10 0.11 0.15 0.20 0.20 0.15 0.15 0.15 0.15 0.14 0.14 0.11 0.14 0.11 0.06 0.03 0.01 0.02 0.05 0.02 0.01 0.01 0.02 0.06 0.07 0.06 0.05 0.02 0.01 0.01 0.02 0.08 0.12 0.15 0.16 0.21 0.31 0.39 0.28
0.00 0.00 0.01 0.02 0.06 0.10 0.15 0.16 0.17 0.15 0.15 0.15 0.08 0.10 0.17 0.09 0.07 0.05 0.03 0.01 0.01 0.02 0.04 0.01 0.01 0.02 0.04 0.08 0.09 0.05 0.02 0.00 0.00 0.00 0.00 0.03 0.06 0.11 0.12 0.12 0.16 0.23 0.24
0.01 0.02 0.01 0.01 0.03 0.07 0.12 0.15 0.12 0.08 0.09 0.10 0.07 0.09 0.15 0.07 0.05 0.04 0.01 0.00 0.01 0.02 0.04 0.02 0.01 0.03 0.05 0.08 0.06 0.01 0.00 0.00 0.00 0.00 0.00 0.01 0.01 0.02 0.03 0.05 0.07 0.10 0.13
0.03 0.06 0.04 0.02 0.01 0.05 0.12 0.15 0.15 0.12 0.13 0.13 0.10 0.13 0.11 0.05 0.05 0.04 0.01 0.01 0.02 0.05 0.06 0.02 0.03 0.04 0.03 0.05 0.02 0.00 0.00 0.00 0.00 0.00 0.02 0.04 0.03 0.01 0.01 0.02 0.02 0.03 0.05
0.03 0.07 0.08 0.06 0.03 0.02 0.06 0.12 0.14 0.11 0.10 0.11 0.10 0.12 0.09 0.04 0.06 0.03 0.05 0.07 0.03 0.05 0.06 0.04 0.04 0.02 0.00 0.00 0.00 0.00 0.00 0.00 0.00 0.01 0.04 0.08 0.06 0.03 0.02 0.01 0.01 0.02 0.02
0.02 0.05 0.04 0.03 0.02 0.02 0.04 0.08 0.10 0.10 0.10 0.08 0.07 0.11 0.04 0.01 0.01 0.02 0.04 0.08 0.05 0.05 0.04 0.04 0.03 0.02 0.02 0.00 0.00 0.00 0.00 0.00 0.00 0.01 0.07 0.14 0.12 0.08 0.05 0.03 0.02 0.02 0.03
0.02 0.02 0.02 0.02 0.03 0.03 0.01 0.04 0.05 0.06 0.08 0.08 0.06 0.08 0.03 0.01 0.02 0.03 0.05 0.10 0.08 0.03 0.03 0.05 0.04 0.04 0.04 0.01 0.00 0.00 0.00 0.00 0.01 0.04 0.09 0.22 0.27 0.20 0.14 0.09 0.06 0.05 0.04
0.02 0.03 0.03 0.04 0.05 0.06 0.03 0.02 0.02 0.02 0.05 0.11 0.13 0.07 0.02 0.01 0.02 0.06 0.07 0.14 0.10 0.03 0.05 0.08 0.03 0.03 0.04 0.01 0.00 0.00 0.00 0.00 0.01 0.05 0.10 0.23 0.42 0.47 0.35 0.24 0.16 0.11 0.10
0.08 0.14 0.14 0.13 0.14 0.10 0.06 0.04 0.05 0.03 0.04 0.08 0.10 0.08 0.03 0.01 0.02 0.06 0.05 0.07 0.05 0.05 0.08 0.04 0.04 0.04 0.05 0.01 0.00 0.00 0.00 0.00 0.00 0.03 0.10 0.19 0.36 0.54 0.61 0.47 0.36 0.27 0.19
0.08 0.17 0.25 0.23 0.22 0.16 0.10 0.08 0.08 0.05 0.04 0.06 0.12 0.10 0.04 0.02 0.03 0.06 0.04 0.03 0.05 0.07 0.07 0.07 0.09 0.07 0.07 0.02 0.01 0.00 0.00 0.00 0.00 0.00 0.03 0.09 0.15 0.24 0.41 0.49 0.51 0.45 0.29
0.07 0.17 0.24 0.23 0.27 0.24 0.17 0.11 0.12 0.08 0.06 0.08 0.10 0.12 0.08 0.03 0.02 0.06 0.06 0.04 0.11 0.14 0.11 0.09 0.06 0.05 0.07 0.04 0.03 0.01 0.00 0.00 0.00 0.00 0.01 0.01 0.01 0.02 0.04 0.08 0.11 0.20 0.27
0.06 0.13 0.14 0.18 0.36 0.35 0.25 0.27 0.24 0.15 0.14 0.16 0.14 0.16 0.14 0.05 0.03 0.08 0.09 0.05 0.07 0.16 0.16 0.11 0.07 0.10 0.05 0.05 0.03 0.02 0.00 0.00 0.00 0.00 0.00 0.00 0.00 0.00 0.00 0.00 0.00 0.01 0.04
0.07 0.12 0.15 0.21 0.29 0.38 0.49 0.46 0.42 0.35 0.27 0.28 0.27 0.26 0.19 0.12 0.07 0.09 0.11 0.07 0.06 0.16 0.23 0.16 0.15 0.11 0.09 0.09 0.05 0.02 0.00 0.00 0.00 0.00 0.00 0.00 0.00 0.00 0.00 0.00 0.00 0.00 0.00
0.07 0.11 0.14 0.27 0.37 0.45 0.51 0.51 0.51 0.51 0.50 0.49 0.49 0.49 0.40 0.25 0.15 0.14 0.13 0.15 0.14 0.17 0.28 0.28 0.24 0.17 0.11 0.07 0.09 0.05 0.01 0.00 0.00 0.00 0.00 0.00 0.00 0.00 0.00 0.00 0.00 0.00 0.00
0.05 0.09 0.14 0.25 0.40 0.50 0.57 0.56 0.50 0.55 0.57 0.54 0.62 0.61 0.59 0.46 0.30 0.21 0.18 0.24 0.19 0.19 0.36 0.35 0.27 0.17 0.11 0.05 0.06 0.09 0.04 0.02 0.01 0.00 0.00 0.00 0.00 0.00 0.00 0.00 0.00 0.00 0.00
0.03 0.06 0.10 0.18 0.30 0.43 0.52 0.48 0.38 0.33 0.39 0.40 0.41 0.44 0.53 0.57 0.50 0.38 0.30 0.30 0.25 0.22 0.32 0.36 0.30 0.18 0.12 0.03 0.02 0.04 0.05 0.05 0.02 0.00 0.00 0.00 0.00 0.00 0.00 0.00 0.00 0.00 0.00
0.01 0.03 0.05 0.13 0.14 0.17 0.21 0.23 0.21 0.18 0.26 0.37 0.39 0.36 0.42 0.53 0.59 0.53 0.44 0.39 0.29 0.18 0.19 0.26 0.35 0.27 0.19 0.08 0.03 0.02 0.02 0.03 0.02 0.01 0.00 0.00 0.00 0.00 0.00 0.00 0.00 0.00 0.00
0.00 0.01 0.02 0.02 0.01 0.02 0.07 0.12 0.10 0.07 0.14 0.28 0.32 0.30 0.36 0.48 0.51 0.43 0.42 0.41 0.31 0.21 0.19 0.22 0.32 0.34 0.23 0.16 0.08 0.07 0.05 0.03 0.01 0.01 0.02 0.01 0.00 0.00 0.00 0.00 0.00 0.00 0.00
0.00 0.00 0.00 0.00 0.00 0.00 0.03 0.06 0.05 0.05 0.12 0.18 0.25 0.31 0.42 0.51 0.48 0.38 0.34 0.37 0.41 0.35 0.27 0.23 0.27 0.29 0.27 0.26 0.20 0.13 0.10 0.05 0.02 0.01 0.03 0.03 0.01 0.00 0.00 0.00 0.00 0.00 0.00